Hourly Weather Dzialki

Today, 6 May, Thursday

Time Temperature Precipitation Wind Pressure Humidity
00:00 +8°C° 0.1 mm 6 mps 731 mmHg 90%
01:00 +6°C° 0.1 mm 7 mps 732 mmHg 90%
02:00 +4°C° 0.1 mm 8 mps 733 mmHg 89%
03:00 +4°C° 0.1 mm 7 mps 734 mmHg 88%
04:00 +4°C° 0.1 mm 7 mps 734 mmHg 88%
05:00 +4°C° 0.1 mm 6 mps 735 mmHg 87%
06:00 +4°C° 0 mm 7 mps 736 mmHg 83%
07:00 +4°C° 0 mm 7 mps 737 mmHg 80%
08:00 +5°C° 0 mm 7 mps 737 mmHg 76%
09:00 +6°C° 0 mm 8 mps 738 mmHg 66%
10:00 +7°C° 0 mm 8 mps 738 mmHg 56%
11:00 +9°C° 0 mm 8 mps 739 mmHg 46%
12:00 +10°C° 0 mm 8 mps 739 mmHg 44%
13:00 +11°C° 0 mm 7 mps 739 mmHg 41%
14:00 +11°C° 0 mm 7 mps 739 mmHg 38%
15:00 +11°C° 0 mm 6 mps 739 mmHg 41%
16:00 +11°C° 0 mm 6 mps 739 mmHg 45%
17:00 +12°C° 0 mm 5 mps 738 mmHg 48%
18:00 +11°C° 0 mm 4 mps 738 mmHg 54%
19:00 +10°C° 0 mm 3 mps 738 mmHg 59%
20:00 +9°C° 0 mm 3 mps 738 mmHg 65%
21:00 +9°C° 0.1 mm 3 mps 738 mmHg 70%
22:00 +8°C° 0.1 mm 3 mps 738 mmHg 75%
23:00 +8°C° 0.1 mm 3 mps 738 mmHg 80%

Tomorrow, 7 May, Friday

Time Temperature Precipitation Wind Pressure Humidity
00:00 +8°C° 0 mm 3 mps 737 mmHg 79%
01:00 +7°C° 0 mm 4 mps 737 mmHg 77%
02:00 +7°C° 0 mm 4 mps 737 mmHg 75%
03:00 +6°C° 0 mm 4 mps 737 mmHg 77%
04:00 +7°C° 0 mm 3 mps 736 mmHg 80%
05:00 +5°C° 0 mm 3 mps 736 mmHg 82%
06:00 +7°C° 0 mm 3 mps 736 mmHg 79%
07:00 +7°C° 0 mm 4 mps 736 mmHg 77%
08:00 +8°C° 0 mm 4 mps 736 mmHg 74%
09:00 +9°C° 0 mm 5 mps 737 mmHg 71%
10:00 +11°C° 0 mm 6 mps 737 mmHg 67%
11:00 +12°C° 0 mm 7 mps 737 mmHg 64%
12:00 +11°C° 0.4 mm 6 mps 737 mmHg 72%
13:00 +9°C° 0.4 mm 5 mps 737 mmHg 80%
14:00 +8°C° 0.4 mm 4 mps 738 mmHg 88%
15:00 +8°C° 0.6 mm 5 mps 738 mmHg 88%
16:00 +7°C° 0.6 mm 5 mps 739 mmHg 88%
17:00 +6°C° 0.6 mm 5 mps 739 mmHg 89%
18:00 +6°C° 0 mm 4 mps 740 mmHg 90%
19:00 +5°C° 0 mm 4 mps 740 mmHg 91%
20:00 +5°C° 0 mm 3 mps 741 mmHg 92%
21:00 +4°C° 0 mm 3 mps 741 mmHg 93%
22:00 +4°C° 0 mm 3 mps 742 mmHg 94%
23:00 +3°C° 0 mm 3 mps 742 mmHg 94%

Day after tomorrow, 8 May, Saturday

Time Temperature Precipitation Wind Pressure Humidity
00:00 +4°C° 0 mm 2 mps 742 mmHg 94%
01:00 +3°C° 0 mm 2 mps 743 mmHg 93%
02:00 +3°C° 0 mm 2 mps 743 mmHg 93%
03:00 +3°C° 0 mm 2 mps 743 mmHg 93%
04:00 +3°C° 0 mm 2 mps 743 mmHg 93%
05:00 +3°C° 0 mm 2 mps 743 mmHg 93%
06:00 +3°C° 0 mm 3 mps 743 mmHg 88%
07:00 +5°C° 0 mm 3 mps 743 mmHg 83%
08:00 +7°C° 0 mm 4 mps 743 mmHg 78%
09:00 +8°C° 0 mm 4 mps 743 mmHg 75%
10:00 +8°C° 0 mm 4 mps 742 mmHg 73%
11:00 +10°C° 0 mm 4 mps 742 mmHg 70%
12:00 +11°C° 0 mm 4 mps 741 mmHg 73%
13:00 +11°C° 0 mm 4 mps 741 mmHg 75%
14:00 +12°C° 0 mm 4 mps 740 mmHg 78%
15:00 +14°C° 0 mm 5 mps 739 mmHg 74%
16:00 +16°C° 0 mm 5 mps 739 mmHg 70%
17:00 +19°C° 0 mm 6 mps 738 mmHg 67%
18:00 +17°C° 0 mm 5 mps 738 mmHg 71%
19:00 +15°C° 0 mm 5 mps 738 mmHg 76%
20:00 +14°C° 0 mm 5 mps 738 mmHg 80%
21:00 +14°C° 0 mm 5 mps 738 mmHg 83%
22:00 +13°C° 0 mm 5 mps 738 mmHg 85%
23:00 +13°C° 0 mm 5 mps 738 mmHg 88%

9 May, Sunday

Time Temperature Precipitation Wind Pressure Humidity
00:00 +12°C° 0 mm 4 mps 738 mmHg 89%
01:00 +12°C° 0 mm 4 mps 737 mmHg 91%
02:00 +11°C° 0 mm 4 mps 737 mmHg 92%

10 May, Monday

Time Temperature Precipitation Wind Pressure Humidity

11 May, Tuesday

Time Temperature Precipitation Wind Pressure Humidity
Show more